Погода в Пематангсиантаре

Индонезия     2°57′22″N   99°03′56″E
темп.,
°C
ветер,
м/с
пор.,
м/с
влажн.,
%
обл.,
%
осадки,
мм/ч
давл.,
гПа
погр.,
м
1 марта, пн
пн101:00+21зюз119570 3.1 101123
04:00+20зюз119431 0.0 101023
07:00+20юз119356 0.0 101223
10:00+26ссв117362 0.1 1013698
13:00+28всв226681 1.1 10111049
16:00+26вюв228499 4.6 1009738
19:00+23сз009486 5.9 101124
22:00+22з019674 0.4 101330
2 марта, вт
вт201:00+21зюз119779 0.4 101225
04:00+21зюз129619 0.0 101024
07:00+20юз129310 0.0 101227
10:00+28в12620 0.0 1013917
13:00+30всв225017 0.0 10111540
16:00+28в236817 1.4 10081207
19:00+23ююв019141 3.9 101024
22:00+22юз119741 0.8 101224
3 марта, ср
ср301:00+21зюз129523 1.8 101127
04:00+20юз229245 0.3 101028
07:00+20юз129022 0.4 101126
10:00+27св126719 0.0 1013911
13:00+29всв226044 0.2 10101258
16:00+28св226380 0.1 10071162
19:00+23св119360 1.1 100924
22:00+22юз129444 0.3 101142
4 марта, чт
чт401:00+22юз228822 0.3 101136
04:00+21ююз12840 0.0 101024
07:00+21юз128633 0.0 101130
10:00+27вюв236599 0.0 1013815
13:00+30в345473 0.0 10101404
16:00+29в24600 0.9 10071321
19:00+24ююв12800 1.0 100925
22:00+23юз12880 0.7 101125
5 марта, пт
пт501:00+22юз12930 1.4 101126
04:00+21юз129369 0.0 101029
07:00+21ююз129267 0.0 101141
10:00+27вюв246681 0.0 1013963
13:00+31в235442 0.0 10101367
16:00+30в235440 0.2 10071502
19:00+24св148470 0.6 1009159
22:00+22юз1291100 0.9 101132